カタログに戻る

ONEWEB-0150

運用中通信PO
NORAD 48047·PAYLOAD·🇬🇧 United Kingdom

打ち上げ Mar 25, 2021 から Vostochny Cosmodrome

Loading…

次のパス (今後24時間)

TLE

最新Source: CelesTrak SupGP

元期: Sep 14, 2026, 22:10 UTC

1 48047C 21025F   26257.92376574  .00000972  00000+0  26650-2 0  2573
2 48047  87.8920 302.3691 0001919 103.1362 292.2187 13.13465417    16

AllMySatでONEWEB-0150をリアルタイム追跡

Download on the App Store